Barksdale AFB, LA

9:08 PM CST on January 23, 2018 (GMT -0600)
Barksdale Air Force Base

Weather History for KBAD - November, 2013

Change the Weather History Date:

Monday, November 11, 2013

  Actual Average Record
Temperature  
Mean Temperature 57 °F -  
Max Temperature 70 °F 63 °F 79 °F (2007)
Min Temperature 44 °F 45 °F 31 °F (2011)
Degree Days  
Heating Degree Days 8    
Growing Degree Days 7 (Base 50)    
Moisture  
Dew Point 48 °F    
Average Humidity 91    
Maximum Humidity 100    
Minimum Humidity 45    
Precipitation  
Precipitation 0.00 in - - ()
Sea Level Pressure  
Sea Level Pressure 30.25 in    
Wind  
Wind Speed 1 mph (NNW)    
Max Wind Speed 5 mph    
Max Gust Speed -    
Visibility 7 miles    
Events Fog    
Averages and records for this station are not official NWS values.
T = Trace of Precipitation, MM = Missing Value Source: NWS Daily Summary

Daily Weather History Graph

Daily Weather History Graph

Search for Another Location

Airport or City:

Trip Planner

Search our weather history database for the weather conditions in past years. The results will help you decide how hot, cold, wet, or windy it might be!

Date:

Astronomy

Nov. 11, 2013 Rise Set
Actual Time 6:40 AM CST 5:16 PM CST
Civil Twilight 6:15 AM CST 5:41 PM CST
Nautical Twilight 5:45 AM CST 6:11 PM CST
Astronomical Twilight 5:16 AM CST 6:40 PM CST
Moon 1:39 PM CST (11/11) 12:46 AM CST (11/11)
Length of Visible Light 11h 26m
Length of Day
10h 35m
Waxing Gibbous, 66% of the Moon is Illuminated
Nov 11
Waxing Gibbous
Nov 17
Full
Nov 25
Last Quarter
Dec 2
New
Dec 9
First Quarter

Hourly Weather History & Observations

Time (CST) Temp. Dew Point Humidity Pressure Visibility Wind Dir Wind Speed Gust Speed Precip Events Conditions
12:28 AM 48.2 °F 48.2 °F 100% 30.26 in 1.5 mi Calm Calm - N/A   Clear
12:38 AM 48.2 °F 48.2 °F 100% 30.26 in 3.0 mi Calm Calm - N/A   Clear
12:48 AM 46.4 °F 46.4 °F 100% 30.26 in 8.0 mi Calm Calm - N/A   Clear
12:58 AM 47.7 °F 47.3 °F 99% 30.27 in 10.0 mi Calm Calm - N/A   Clear
1:18 AM 48.2 °F 48.2 °F 100% 30.27 in 9.0 mi Calm Calm - N/A   Clear
1:38 AM 48.2 °F 48.2 °F 100% 30.26 in 1.2 mi NNW 2.3 mph - N/A   Clear
1:48 AM 48.2 °F 48.2 °F 100% 30.26 in 1.8 mi NW 2.3 mph - N/A   Clear
1:58 AM 48.4 °F 48.2 °F 99% 30.27 in 10.0 mi WNW 2.3 mph - N/A   Clear
2:18 AM 46.4 °F 46.4 °F 100% 30.25 in 8.0 mi North 1.2 mph - N/A   Clear
2:28 AM 48.2 °F 48.2 °F 100% 30.25 in 7.0 mi North 1.2 mph - N/A   Clear
2:48 AM 48.2 °F 48.2 °F 100% 30.25 in 9.0 mi Calm Calm - N/A   Clear
2:58 AM 47.5 °F 47.3 °F 99% 30.26 in 6.0 mi Calm Calm - N/A   Clear
3:08 AM 46.4 °F 46.4 °F 100% 30.25 in 5.0 mi NW 1.2 mph - N/A   Clear
3:18 AM 46.4 °F 46.4 °F 100% 30.25 in 1.5 mi NNW 2.3 mph - N/A   Clear
3:28 AM 46.4 °F 46.4 °F 100% 30.24 in 1.0 mi North 2.3 mph - N/A   Clear
3:38 AM 46.4 °F 46.4 °F 100% 30.24 in 6.0 mi Calm Calm - N/A   Clear
3:48 AM 46.4 °F 46.4 °F 100% 30.25 in 10.0 mi Calm Calm - N/A   Clear
3:58 AM 46.4 °F 46.4 °F 100% 30.26 in 8.0 mi NNW 2.3 mph - N/A   Clear
4:18 AM 46.4 °F 46.4 °F 100% 30.25 in 2.0 mi North 2.3 mph - N/A   Clear
4:28 AM 46.4 °F 46.4 °F 100% 30.25 in 6.0 mi Calm Calm - N/A   Clear
4:38 AM 46.4 °F 46.4 °F 100% 30.25 in 10.0 mi North 2.3 mph - N/A   Clear
4:48 AM 46.4 °F 46.4 °F 100% 30.25 in 6.0 mi Calm Calm - N/A   Clear
4:58 AM 46.4 °F 44.6 °F 93% 30.26 in 2.0 mi Calm Calm - N/A   Clear
5:08 AM 46.4 °F 46.4 °F 100% 30.25 in 10.0 mi Calm Calm - N/A   Clear
5:38 AM 44.6 °F 44.6 °F 100% 30.26 in 8.0 mi Calm Calm - N/A   Clear
5:48 AM 44.6 °F 44.6 °F 100% 30.26 in 3.0 mi NNE 1.2 mph - N/A   Clear
5:58 AM 45.7 °F 45.5 °F 99% 30.28 in 8.0 mi North 1.2 mph - N/A   Clear
6:08 AM 46.4 °F 46.4 °F 100% 30.27 in 10.0 mi NNE 2.3 mph - N/A   Clear
6:28 AM 44.6 °F 44.6 °F 100% 30.26 in 1.0 mi NNE 2.3 mph - N/A   Clear
6:38 AM 44.6 °F 44.6 °F 100% 30.27 in 0.2 mi NNE 2.3 mph - N/A Fog Fog
6:48 AM 44.6 °F 44.6 °F 100% 30.27 in 0.5 mi North 2.3 mph - N/A Fog Fog
6:58 AM 44.6 °F 44.6 °F 100% 30.28 in 2.0 mi North 2.3 mph - N/A   Clear
7:08 AM 46.4 °F 46.4 °F 100% 30.28 in 5.0 mi North 2.3 mph - N/A   Clear
7:58 AM 49.6 °F 49.6 °F 100% 30.31 in 4.0 mi Calm Calm - N/A   Clear
8:58 AM 56.7 °F 52.5 °F 86% 30.30 in 10.0 mi Variable 2.3 mph - N/A   Clear
9:58 AM 61.2 °F 51.3 °F 70% 30.31 in 10.0 mi West 2.3 mph - N/A   Clear
10:58 AM 65.7 °F 49.8 °F 57% 30.29 in 10.0 mi Variable 1.2 mph - N/A   Clear
11:58 AM 67.8 °F 49.5 °F 52% 30.26 in 10.0 mi Variable 1.2 mph - N/A   Clear
12:58 PM 69.6 °F 49.3 °F 48% 30.23 in 10.0 mi WNW 4.6 mph - N/A   Clear
1:58 PM 70.9 °F 49.5 °F 47% 30.20 in 10.0 mi North 4.6 mph - N/A   Clear
2:58 PM 70.9 °F 48.7 °F 45% 30.19 in 10.0 mi Calm Calm - N/A   Clear
3:58 PM 70.7 °F 48.2 °F 45% 30.19 in 10.0 mi North 1.2 mph - N/A   Clear
4:58 PM 68.9 °F 50.5 °F 52% 30.19 in 10.0 mi NNW 2.3 mph - N/A   Clear
5:58 PM 61.0 °F 52.3 °F 73% 30.20 in 10.0 mi Calm Calm - N/A   Clear
6:58 PM 57.4 °F 52.7 °F 84% 30.21 in 10.0 mi Calm Calm - N/A   Clear
7:58 PM 55.4 °F 53.4 °F 93% 30.23 in 10.0 mi Calm Calm - N/A   Clear
8:58 PM 53.4 °F 52.5 °F 97% 30.25 in 10.0 mi Calm Calm - N/A   Clear
9:58 PM 53.1 °F 52.7 °F 99% 30.26 in 10.0 mi NNW 2.3 mph - N/A   Clear
10:58 PM 52.7 °F 52.5 °F 99% 30.27 in 10.0 mi North 1.2 mph - N/A   Clear
11:58 PM 51.8 °F 51.4 °F 99% 30.27 in 10.0 mi NNW 2.3 mph - N/A   Clear